Regional Weather Roundup
Issued by NWS Charleston, SC

Current Version | Previous Version | Graphics & Text | Print | Product List | Glossary On
Versions: 1 2 3 4 5 6 7 8 9 10 11 12 13 14 15 16 17 18 19 20 21 22 23 24 25 26 27 28 29 30 31 32 33 34 35 36 37 38 39 40 41 42 43 44 45 46 47 48 49 50
000
ASUS42 KCHS 260112
RWRCHS

Regional Weather Roundup
National Weather Service Charleston SC
900 PM EDT WED APR 25 2018

NOTE: "fair" indicates few or no clouds below 12,000 feet with no
significant weather and/or obstructions to visibility.

Not all stations are quality controlled. Use data with caution,
especially dewpoint observations.

SCZ027-030-031-034>040-042>050-260200-
...Southeast South Carolina...

CITY           SKY/WX    TMP DP  RH WIND       PRES   REMARKS
N Charleston   FAIR      70  56  61 W5        29.82R
Waterfront Prk   N/A     73  56  54 VRB2      29.66R
Mount Pleasant FAIR      66  63  88 CALM      29.83R
Johns Island   FAIR      66  59  77 CALM      29.83R
Pinopolis        N/A    N/A N/A N/A VRB2      29.72S
Moncks Corner  FAIR      63  59  88 CALM      29.82R
Summerville    FAIR      64  57  77 CALM      29.83R
Beaufort MCAS  FAIR      67  56  67 SW6       29.84R
Beaufort Arpt  FAIR      70  55  60 SW8       29.84R
Hilton Head Is MOCLDY    70  55  60 VRB5      29.86R
Walterboro     FAIR      68  54  60 W6        29.84R
Allendale      FAIR      68  55  64 CALM      29.84R

...Southern Midlands and Pee Dee...

CITY           SKY/WX    TMP DP  RH WIND       PRES   REMARKS
Georgetown     FAIR      64  61  88 W3        29.83R
Kingstree      FAIR      64  61  88 CALM      29.81R
Orangeburg     MOCLDY    68  58  70 CALM      29.82R
Barnwell       NOT AVBL
Aiken          FAIR      63  52  67 SW3       29.87R
Manning        FAIR      61  54  77 CALM      29.82R
Columbia       FAIR      67  58  72 W3        29.81R
Sumter         FAIR      68  54  62 W5        29.79R
Florence       FAIR      69  57  65 N3        29.81R
Myrtle Beach   FAIR      69  58  67 CALM      29.82R
N Myrtle Beach FAIR      65  59  81 CALM      29.80R

$$

GAZ063-065-086>088-099>101-113>116-118-119-134>141-150-260200-
...Southeast Georgia...

CITY           SKY/WX    TMP DP  RH WIND       PRES   REMARKS
Savannah Arpt  FAIR      69  55  60 W5        29.86R
Hunter AAF     MOCLDY    69  55  60 W6        29.84R
Fort Stewart   FAIR      70  54  56 NW6       29.85R
Statesboro     FAIR      67  51  56 W3        29.87R
Sylvania       FAIR      66  58  76 CALM      29.86R
Claxton        FAIR      68  56  66 SW3       29.87R

...CSRA, Central and far Southeast Georgia...

CITY           SKY/WX    TMP DP  RH WIND       PRES   REMARKS
Thomson        FAIR      64  54  69 NW6       29.91R
Augusta-Bush   FAIR      67  55  65 W6        29.84R
Augusta-Daniel FAIR      69  54  58 VRB5      29.85R
Swainsboro     FAIR      64  55  72 W3        29.89R
Vidalia        FAIR      68  52  56 W5        29.89R
Eastman        FAIR      64  47  53 CALM      29.93R
Hazlehurst     FAIR      68  53  58 NW3       29.89R
Alma           FAIR      70  54  56 NW8       29.88R
Waycross       FAIR      69  56  61 N5        29.89R
Jesup          NOT AVBL
Baxley         FAIR      64  54  68 CALM      29.88R
Brunswick      MOCLDY    70  54  56 CALM      29.88R
Saint Simons   FAIR      73  56  54 NW5       29.86R

$$

SCZ027-028-034-036>038-045-046-048>050-GAZ119-141-260200-
...Lake and Supplemental Coastal Observations...

STATION/POSITION TIME  TEMP    WIND        PRES    WAVE   SWELL
                       AIR SEA DIR/SP/G            HT/PER HT/PER/DIR
                 (UTC) (F)     (DEG/KT/KT) (MB)    (FT/S) (FT/S/D)
Winyah Bay       2345   74     280/  4     1008.0
Lake Murray      0020   69     300/  2/  3 1008.8
ACE Basin NERRS  2345   73     350/  1       N/A
Fort Pulaski     0048   71 67  300/  6/  6 1011.1R
Sapelo Island    0000   72     320/  7     1010.0

$$

ANZ835-935-AMZ111-154-330-350-352-354-370-450-454-472-260200-
...C-MAN and Buoy Observations...

STATION/POSITION TIME  TEMP    WIND        PRES    WAVE   SWELL
                       AIR SEA DIR/SP/G            HT/PER HT/PER/DIR
                 (UTC) (F)     (DEG/KT/KT) (MB)    (FT/S) (FT/S/D)
Buoy 41004       0050      69  230/ 16/ 19 1010.0R   5/ 9   3/120/ 9
Buoy 41008       0050   70 67  310/ 10/ 12 1010.8R   2/ 9   2/100/ 9
Folly Beach CMAN 0000   67     220/  9/ 11 1009.9R
Capers Nearshore 0008   67 66  240/ 12/ 16 1009.6R
Fripp Nearshore  0008   69 67  270/  6/ 10 1009.6R


STATION/POSITION TIME  TEMP    WIND        PRES    WAVE   SWELL
                       AIR SEA DIR/SP/G            HT/PER HT/PER/DIR
                 (UTC) (F)     (DEG/KT/KT) (MB)    (FT/S) (FT/S/D)
5E St. Marys GA  0030      69                N/A     2/ 9
Frying Pan Buoy  0050   69 70  240/ 17/ 23 1009.3R   6/10   5/110/10
Buoy 41025       0050   68 70  240/ 17/ 23 1007.5R   7/ 9   5/120/ 9
Cape Lookout NC  0000          240/ 13/ 16 1007.4R
Buoy 41002       0050   73 74  230/ 12/ 16 1010.3R   6/ 8   5/110/ 8
Buoy 41010       0050   74 76  210/  8/ 12 1012.8R   5/ 9   5/ 70/ 9
St Augustine FL  0100   74 67  210/  3/  3 1012.4R


$$




USA.gov is the U.S. government's official web portal to all federal, state and local government web resources and services.